Location: Shenandoah County Park
(38.9356°N, 78.4524°W)
Time: 01:58:15
(UTC-05:00)

A-11 Canister half - Pass Details

Date: 09 December 2023
Orbit: 1526 x 1682 km, 47.3° (Epoch: 01 March)

Event Time Altitude Azimuth Distance (km) Brightness Sun altitude
Rises 21:41:13 0° 288° (WNW) 4,935 12.2 -55.3°
Reaches altitude 10° 21:44:31 10° 293° (WNW) 3,943 11.5 -55.9°
Enters shadow 21:48:05 25° 302° (WNW) 2,940 10.6 -56.6°
